Weather observations for the past three days for
Cocoa - Patrick Air Force Base
Metric (Imperial)
Date Time (edt) Wind (kph) Vis. (km) Weather Sky Cond. Temperature (ºC) Relative Humidity Wind Chill (°C) Heat Index (°C) Pressure Precipitation (cm)
Air Dwpt 6 hour altimeter (cm) sea level (mb) 1 hr 3 hr 6 hr
Max. Min.
21 11:55 E 11 16.09 A Few Clouds FEW190 28.8 23.7 74% 33 76.33 1018.0
21 10:55 S 7 16.09 A Few Clouds FEW016 28.2 24 78% 32 76.35 1018.4
21 09:55 SE 9 16.09 Mostly Cloudy SCT016 BKN021 27.7 24.1 81% 31 76.35 1018.4
21 08:55 Calm 16.09 A Few Clouds FEW008 26.6 24.2 87% 29 76.3 1017.7
21 07:55 NW 7 16.09 Fair CLR 25.9 24.3 26 24.9 91% 28 76.28 1017.4 0.03
21 06:55 NW 6 16.09 A Few Clouds FEW070 25.1 23.9 93% 26 76.28 1017.4
21 05:55 W 9 16.09 Fair CLR 25.2 24 93% 26 76.25 1017.0
21 04:55 Calm 16.09 A Few Clouds FEW090 25.7 23.9 90% 27 76.25 1017.0 0.03
21 03:55 Calm 16.09 Fair CLR 25.3 23.7 91% 26 76.23 1016.7
21 02:55 SE 15 16.09 Mostly Cloudy BKN013 25.3 24.1 93% 26 76.28 1017.4 0.03
21 01:55 N 11 16.09 Fair CLR 25.5 24.1 27.7 25 92% 27 76.3 1017.7 0.05 0.33
21 00:55 N 13 16.09 Light Rain CLR 25.8 24.2 91% 28 76.33 1018.0
20 23:55 N 13 16.09 Light Rain FEW050 25.5 24.1 92% 27 76.35 1018.4 0.03
20 22:55 N 20 16.09 A Few Clouds FEW012 25.7 23.9 90% 27 76.38 1018.7 0.03 0.25
20 21:55 N 24 G 39 11.27 Heavy Rain Fog/Mist FEW008 SCT016 25 23.4 91% 26 76.35 1018.4 0.23
20 20:55 NE 20 16.09 A Few Clouds FEW017 26.9 23.5 82% 30 76.33 1018.0
20 19:55 NE 26 16.09 A Few Clouds FEW020 27.7 23.5 30.9 27.7 78% 31 76.33 1018.0
20 18:55 NE 26 16.09 Fair CLR 29.1 22.8 69% 33 76.33 1018.0
20 17:55 NE 26 16.09 Fair CLR 28.9 22.1 67% 32 76.33 1018.0
20 16:55 NE 28 16.09 Fair CLR 29.9 21 59% 32 76.35 1018.4
20 15:55 NE 28 16.09 Fair CLR 30.6 22.4 62% 34 76.4 1019.1
20 14:55 NE 26 16.09 A Few Clouds FEW170 FEW190 30.5 22.6 63% 34 76.45 1019.7
20 13:55 E 24 16.09 Mostly Cloudy FEW060 FEW085 SCT110 BKN140 BKN160 BKN200 30.2 23.1 30.7 27 66% 35 76.45 1019.7
20 12:55 E 24 16.09 Partly Cloudy FEW110 FEW150 SCT180 30.6 22.7 63% 35 76.48 1020.1
20 11:55 E 24 16.09 Fair CLR 30 22.7 65% 34 76.48 1020.1
20 10:55 E 28 16.09 Fair CLR 29.3 22.7 68% 33 76.45 1019.7
20 09:55 E 26 16.09 Fair CLR 29.3 23.2 70% 33 76.43 1019.4
20 08:55 E 30 16.09 Fair CLR 27.9 23.2 76% 31 76.38 1018.7
20 07:55 E 24 G 41 16.09 Fair CLR 27 22.8 27.1 26 78% 30 76.35 1018.4 0.13
20 06:55 E 28 16.09 Fair CLR 26.8 23.2 81% 29 76.3 1017.7
20 05:55 E 28 16.09 Fair CLR 26.2 23.2 84% 28 76.25 1017.0 0.08
20 04:55 E 28 16.09 A Few Clouds FEW018 27 24 84% 30 76.23 1016.7 0.05
20 03:55 E 28 16.09 Fair CLR 27 24.2 85% 30 76.23 1016.7
20 02:55 E 30 16.09 A Few Clouds FEW014 26.8 24.2 86% 30 76.25 1017.0 0.05
20 01:55 E 20 16.09 Fair CLR 26.3 23.9 27.6 24.8 87% 29 76.3 1017.7 0.13
20 00:55 E 19 16.09 A Few Clouds FEW018 26.9 23.9 84% 30 76.3 1017.7
19 23:55 E 20 16.09 Fair CLR 26.5 24.1 87% 29 76.3 1017.7
19 22:55 SE 24 16.09 A Few Clouds FEW021 FEW070 25.8 23.6 88% 27 76.3 1017.7 0.05 0.13
19 21:55 E 26 3.62 Thunderstorm Light Rain Fog/Mist BKN012 25.5 23.7 90% 27 76.28 1017.4 0.08
19 20:55 NE 26 16.09 Fair CLR 27.1 23.7 82% 30 76.25 1017.0
19 19:55 E 22 16.09 Fair CLR 27.6 23.6 31.1 27.6 79% 31 76.25 1017.0
19 18:55 E 20 16.09 Fair CLR 28.6 23.2 73% 32 76.25 1017.0
19 17:55 E 28 16.09 Fair CLR 29.1 23 70% 33 76.28 1017.4
19 16:55 E 31 16.09 Fair CLR 29.8 23 67% 34 76.28 1017.4
19 15:55 E 31 G 41 16.09 Fair CLR 30 23.2 67% 34 76.3 1017.7
19 14:55 E 31 16.09 Partly Cloudy FEW160 SCT190 SCT210 30.8 23.7 66% 36 76.3 1017.7
19 13:55 E 28 16.09 Mostly Cloudy FEW070 FEW100 SCT140 SCT160 BKN180 BKN200 30 23.2 30.6 25.5 67% 34 76.33 1018.0 0.2
19 12:55 E 30 16.09 Partly Cloudy FEW140 SCT180 SCT200 30 24.1 71% 35 76.35 1018.4
19 11:55 E 26 16.09 Partly Cloudy FEW110 SCT170 SCT200 29.5 24.1 73% 34 76.33 1018.0
19 10:55 E 35 16.09 Fair and Breezy CLR 28.4 23.9 77% 33 76.3 1017.7 0.2
19 09:55 E 30 G 39 16.09 A Few Clouds FEW026 27.5 23.7 80% 31 76.25 1017.0
19 08:55 E 30 16.09 Light Rain Fog/Mist FEW022 25.5 23.7 90% 27 76.23 1016.7 0.2
19 07:55 E 22 16.09 A Few Clouds FEW010 25.8 24 26.4 24.3 90% 28 76.2 1016.3 0.2 0.2
19 06:55 E 26 12.87 Mostly Cloudy SCT013 BKN025 25.1 23.7 92% 26 76.15 1015.7
19 05:55 E 30 16.09 Fair CLR 25.8 23.6 88% 27 76.12 1015.3
19 04:55 E 26 14.48 Fair CLR 25.5 23.9 91% 27 76.1 1015.0
19 03:55 E 33 16.09 Fair and Breezy CLR 26.3 23.5 85% 29 76.1 1015.0
19 02:55 E 28 16.09 A Few Clouds FEW013 26 24.2 90% 28 76.12 1015.3
19 01:55 E 37 16.09 Fair and Breezy CLR 26.4 23.8 27.3 26.2 86% 29 76.15 1015.7
19 00:55 E 30 16.09 Fair CLR 26.5 23.9 86% 29 76.2 1016.3
18 23:55 E 31 16.09 A Few Clouds FEW015 26.8 23.8 84% 30 76.17 1016.0
18 22:55 E 33 G 44 16.09 A Few Clouds and Breezy FEW018 27 23.6 82% 30 76.17 1016.0
18 21:55 E 31 16.09 A Few Clouds FEW017 27.3 24.1 83% 31 76.15 1015.7
18 20:55 E 33 16.09 Fair and Breezy CLR 27.1 24.1 84% 30 76.1 1015.0
18 19:55 E 37 G 44 16.09 Fair and Breezy CLR 27.3 23.5 28.4 25.1 80% 30 76.05 1014.3 0.08
18 18:55 E 26 16.09 Fair CLR 28.1 24.1 79% 32 76.02 1014.0
18 17:55 E 37 G 44 16.09 A Few Clouds and Breezy FEW055 27.9 23.9 79% 32 76.02 1014.0
18 16:55 NE 39 G 54 16.09 A Few Clouds and Breezy FEW011 27.7 24.3 82% 32 76.05 1014.3 0.03 0.08
18 15:55 E 39 16.09 Mostly Cloudy and Breezy SCT012 BKN020 26.1 24.3 90% 28 76.07 1014.7 0.03
18 14:55 NE 31 G 41 8.05 Light Drizzle Fog/Mist FEW013 BKN019 25.5 23.5 89% 27 76.12 1015.3 0.03
18 13:55 NE 20 9.66 Light Rain Fog/Mist BKN017 BKN024 BKN160 25.6 23.6 30.1 25.4 89% 27 76.17 1016.0 0.03 0.03
18 12:55 E 35 G 44 16.09 Partly Cloudy and Breezy FEW150 FEW180 SCT210 28.5 22.5 70% 32 76.17 1016.0
Date Time (edt) Wind (kph) Vis. (km) Weather Sky Cond. Air Dwpt Max. Min. Relative Humidity Wind Chill (°C) Heat Index (°C) altimeter (cm) sea level (mb) 1 hr 3 hr 6 hr
6 hour
Temperature (ºC) Pressure Precipitation (cm)